Thunderstorms From: 15-12-2017 06:00 Until: 16-12-2017 06:00 warning for: Thunderstorms Level: Yellow info button

Although rather usual in this region, locally or potentially dangerous phenomena are expected. (such as local winds, summer thunderstorms, rising streams or high waves) Be aware and pay attention to the latest weather updates, especially if you carry out activities exposed to weather or close to a stream or shoreline. 


Meteo18 Weather Cam more information Meteo18 Weather Cam


warning for Thunderstorms more information blitzortung!


Rain radar more information rain snow radar


Visit our other weather sites:

Template documentation
and downloads

And another site



Weather Underground History page Text

Daily Summary for March 7, 2017 Units:  English    Metric   Both
« Previous Day
Next Day »
Daily Weekly Monthly Yearly Custom
  High: Low: Average:
Temperature: 48.6 °F 37.9 °F 43.7 °F
Dew Point: 39.9 °F 35.2 °F 38.1 °F
Humidity: 94 % 61 % 81 %
Wind Speed: 16 mph 0 mph 5.8 mph
Wind Gust: 24 mph - -
Wind:- - West
Pressure: 30.2 in 30 in -
Precipitation: 0.07 in    
Historical Graphs
 
 
Tabular Data for March 7, 2017
Time Temperature Dew Point Pressure Wind Wind Speed Wind Gust Humidity Rainfall Rate (Hourly)
00:02 42.3 °F 39.2 °F 30 in WNW 15 mph 22 mph 89 % 0 in
00:07 42.4 °F 38.8 °F 30 in WNW 16 mph 22 mph 87 % 0 in
00:12 42.3 °F 38.7 °F 30 in WNW 11 mph 23 mph 87 % 0 in
00:17 42.3 °F 39 °F 30 in WNW 7 mph 23 mph 88 % 0 in
00:22 42.1 °F 39 °F 30 in West 9 mph 23 mph 89 % 0 in
00:27 42.3 °F 39.2 °F 30 in West 14 mph 22 mph 89 % 0 in
00:32 42.3 °F 39.6 °F 30 in WNW 14 mph 22 mph 90 % 0 in
00:37 42.3 °F 39.6 °F 30 in WNW 8 mph 22 mph 90 % 0 in
00:47 42.4 °F 39.4 °F 30 in West 14 mph 17 mph 89 % 0 in
00:52 42.6 °F 39.9 °F 30 in West 7 mph 21 mph 90 % 0 in
00:57 42.4 °F 39.7 °F 30 in WNW 6 mph 21 mph 90 % 0 in
01:02 42.6 °F 39.9 °F 30 in WNW 5 mph 21 mph 90 % 0.01 in
01:07 42.6 °F 39.6 °F 30 in WNW 9 mph 20 mph 89 % 0.01 in
01:12 42.6 °F 39.6 °F 30 in West 10 mph 20 mph 89 % 0.01 in
01:17 42.6 °F 39.6 °F 30 in WNW 13 mph 20 mph 89 % 0.01 in
01:22 42.6 °F 39.6 °F 30 in WNW 14 mph 19 mph 89 % 0.01 in
01:27 42.6 °F 39.9 °F 30 in WNW 9 mph 19 mph 90 % 0.01 in
01:32 42.6 °F 39.6 °F 30.1 in WNW 4 mph 19 mph 89 % 0.01 in
01:37 42.6 °F 39.6 °F 30.1 in WNW 6 mph 19 mph 89 % 0.01 in
01:42 42.6 °F 39.6 °F 30.1 in West 8 mph 19 mph 89 % 0.01 in
01:47 42.6 °F 39.6 °F 30.1 in West 10 mph 20 mph 89 % 0.01 in
01:52 42.6 °F 39.6 °F 30.1 in West 1 mph 20 mph 89 % 0.01 in
01:57 42.6 °F 39.9 °F 30.1 in West 8 mph 20 mph 90 % 0.01 in
02:02 42.4 °F 39.9 °F 30.1 in WNW 6 mph 19 mph 91 % 0 in
02:07 42.3 °F 39.7 °F 30.1 in WSW 5 mph 18 mph 91 % 0 in
02:12 42.3 °F 39.7 °F 30.1 in NW 8 mph 15 mph 91 % 0 in
02:17 42.3 °F 39.7 °F 30.1 in WNW 9 mph 15 mph 91 % 0 in
02:22 42.3 °F 39.7 °F 30.1 in WNW 8 mph 15 mph 91 % 0.01 in
02:27 42.3 °F 39.6 °F 30.1 in West 14 mph 14 mph 90 % 0.01 in
02:32 42.3 °F 39.6 °F 30.1 in WNW 9 mph 21 mph 90 % 0.01 in
02:37 42.1 °F 39.4 °F 30.1 in WNW 11 mph 21 mph 90 % 0.02 in
02:42 41.7 °F 39 °F 30.1 in West 9 mph 21 mph 90 % 0.03 in
02:47 41.7 °F 39.2 °F 30.1 in WNW 15 mph 16 mph 91 % 0.04 in
02:52 41.7 °F 39.2 °F 30.1 in WNW 5 mph 16 mph 91 % 0.05 in
02:57 41.7 °F 39.6 °F 30.1 in WNW 5 mph 15 mph 92 % 0.05 in
03:02 42.1 °F 39.6 °F 30.1 in WNW 16 mph 16 mph 91 % 0.05 in
03:07 42.3 °F 39.6 °F 30.1 in West 8 mph 24 mph 90 % 0.06 in
03:12 42.3 °F 39.6 °F 30.1 in NW 7 mph 24 mph 90 % 0.06 in
03:17 41.9 °F 39.2 °F 30.1 in West 5 mph 21 mph 90 % 0.06 in
03:22 41.9 °F 39.4 °F 30.1 in West 12 mph 21 mph 91 % 0.06 in
03:27 42.3 °F 39.6 °F 30.1 in WNW 16 mph 21 mph 90 % 0.06 in
03:32 42.4 °F 39.4 °F 30.1 in WNW 10 mph 21 mph 89 % 0.05 in
03:37 42.4 °F 39.4 °F 30.1 in NW 8 mph 20 mph 89 % 0.04 in
03:42 42.3 °F 39.2 °F 30.1 in NW 10 mph 19 mph 89 % 0.03 in
03:52 42.4 °F 39.4 °F 30.1 in West 12 mph 18 mph 89 % 0.02 in
03:57 42.4 °F 39.4 °F 30.1 in WSW 13 mph 17 mph 89 % 0.02 in
04:02 42.4 °F 39.4 °F 30.1 in WNW 15 mph 20 mph 89 % 0.02 in
04:07 42.4 °F 39.4 °F 30.1 in WNW 5 mph 20 mph 89 % 0.01 in
04:12 42.3 °F 39.2 °F 30.1 in West 5 mph 20 mph 89 % 0.01 in
04:17 42.3 °F 39.2 °F 30.1 in West 3 mph 20 mph 89 % 0 in
04:22 42.3 °F 39.2 °F 30.1 in West 10 mph 15 mph 89 % 0 in
04:27 42.3 °F 39.2 °F 30.1 in WNW 11 mph 15 mph 89 % 0 in
04:32 42.3 °F 39.2 °F 30.1 in West 5 mph 21 mph 89 % 0 in
04:37 42.1 °F 39 °F 30.1 in NW 10 mph 21 mph 89 % 0 in
04:42 42.1 °F 39 °F 30.1 in West 4 mph 21 mph 89 % 0 in
04:47 42.1 °F 39 °F 30.1 in WSW 5 mph 17 mph 89 % 0 in
04:52 42.1 °F 39 °F 30.1 in WNW 8 mph 15 mph 89 % 0 in
04:57 42.1 °F 39 °F 30.1 in West 16 mph 16 mph 89 % 0 in
05:02 42.1 °F 38.8 °F 30.1 in West 14 mph 17 mph 88 % 0 in
05:07 42.1 °F 38.8 °F 30.1 in WNW 9 mph 19 mph 88 % 0 in
05:12 42.1 °F 38.8 °F 30.1 in West 7 mph 19 mph 88 % 0 in
05:17 42.1 °F 38.8 °F 30.1 in WNW 7 mph 19 mph 88 % 0 in
05:22 41.9 °F 38.7 °F 30.1 in West 9 mph 18 mph 88 % 0 in
05:27 41.9 °F 38.7 °F 30.1 in West 10 mph 21 mph 88 % 0 in
05:32 41.9 °F 38.7 °F 30.1 in WNW 12 mph 21 mph 88 % 0 in
05:37 41.9 °F 38.7 °F 30.1 in WNW 11 mph 21 mph 88 % 0 in
05:42 41.9 °F 38.7 °F 30.1 in West 16 mph 20 mph 88 % 0 in
05:52 42.1 °F 38.1 °F 30.1 in West 10 mph 19 mph 86 % 0 in
05:57 41.9 °F 38.3 °F 30.1 in WNW 7 mph 19 mph 87 % 0 in
06:02 41.9 °F 38.3 °F 30.1 in WNW 10 mph 19 mph 87 % 0 in
06:07 41.7 °F 38.1 °F 30.1 in WNW 13 mph 18 mph 87 % 0 in
06:12 41.7 °F 38.1 °F 30.1 in WNW 14 mph 21 mph 87 % 0 in
06:17 41.7 °F 37.8 °F 30.1 in WNW 11 mph 21 mph 86 % 0 in
06:22 41.5 °F 37.9 °F 30.1 in West 9 mph 21 mph 87 % 0 in
06:27 41.5 °F 37.6 °F 30.1 in WSW 7 mph 18 mph 86 % 0 in
06:32 41.7 °F 37.6 °F 30.1 in WNW 11 mph 18 mph 85 % 0 in
06:42 41.5 °F 37.6 °F 30.1 in WNW 5 mph 22 mph 86 % 0 in
06:47 41.5 °F 37.9 °F 30.1 in West 13 mph 22 mph 87 % 0 in
06:52 41.4 °F 37.8 °F 30.1 in WSW 8 mph 21 mph 87 % 0 in
06:57 41.4 °F 37.8 °F 30.1 in West 7 mph 18 mph 87 % 0 in
07:02 41.4 °F 37.8 °F 30.1 in WNW 10 mph 18 mph 87 % 0 in
07:12 41.2 °F 37.6 °F 30.1 in WNW 8 mph 16 mph 87 % 0 in
07:17 41.2 °F 37.6 °F 30.1 in WNW 9 mph 16 mph 87 % 0 in
07:22 41.2 °F 37.6 °F 30.1 in WNW 7 mph 16 mph 87 % 0 in
07:27 41.2 °F 37.6 °F 30.1 in West 5 mph 16 mph 87 % 0 in
07:32 41.2 °F 37.6 °F 30.1 in West 6 mph 16 mph 87 % 0 in
07:37 41 °F 37.4 °F 30.1 in West 5 mph 18 mph 87 % 0 in
07:42 41 °F 37.8 °F 30.1 in WNW 6 mph 18 mph 88 % 0 in
07:52 41.2 °F 37.9 °F 30.1 in WNW 6 mph 14 mph 88 % 0 in
07:57 41.2 °F 37.9 °F 30.1 in WNW 8 mph 14 mph 88 % 0 in
08:02 41.2 °F 37.9 °F 30.1 in West 6 mph 14 mph 88 % 0 in
08:07 41.2 °F 37.9 °F 30.1 in WNW 10 mph 16 mph 88 % 0 in
08:12 41.2 °F 37.9 °F 30.1 in West 7 mph 16 mph 88 % 0 in
08:17 41.4 °F 38.1 °F 30.1 in West 6 mph 15 mph 88 % 0 in
08:22 41.4 °F 38.1 °F 30.1 in West 6 mph 14 mph 88 % 0 in
08:27 41.4 °F 38.1 °F 30.1 in WNW 7 mph 13 mph 88 % 0 in
08:32 41.5 °F 38.3 °F 30.1 in West 13 mph 13 mph 88 % 0 in
08:37 41.5 °F 38.3 °F 30.1 in WSW 7 mph 14 mph 88 % 0 in
08:42 41.7 °F 38.5 °F 30.1 in West 9 mph 14 mph 88 % 0 in
08:47 41.9 °F 38.3 °F 30.2 in WSW 4 mph 17 mph 87 % 0 in
08:52 42.1 °F 38.5 °F 30.2 in West 10 mph 17 mph 87 % 0 in
08:57 42.3 °F 38.7 °F 30.1 in NW 7 mph 17 mph 87 % 0 in
09:02 42.4 °F 38.5 °F 30.2 in West 8 mph 17 mph 86 % 0 in
09:07 42.4 °F 38.3 °F 30.2 in WNW 14 mph 14 mph 85 % 0 in
09:12 42.6 °F 38.5 °F 30.2 in WNW 5 mph 14 mph 85 % 0 in
09:17 42.6 °F 38.1 °F 30.2 in West 6 mph 14 mph 84 % 0 in
09:22 42.6 °F 38.5 °F 30.2 in WNW 6 mph 15 mph 85 % 0 in
09:27 42.6 °F 38.7 °F 30.2 in West 4 mph 15 mph 86 % 0 in
09:32 42.6 °F 38.7 °F 30.2 in WNW 3 mph 15 mph 86 % 0 in
09:37 42.8 °F 38.8 °F 30.2 in WNW 9 mph 15 mph 86 % 0 in
09:42 42.8 °F 38.8 °F 30.2 in West 9 mph 15 mph 86 % 0 in
09:47 43 °F 38.8 °F 30.2 in West 5 mph 15 mph 85 % 0 in
09:52 43 °F 38.8 °F 30.2 in West 8 mph 16 mph 85 % 0 in
09:57 43.2 °F 39 °F 30.2 in WNW 12 mph 16 mph 85 % 0 in
10:02 43.2 °F 39 °F 30.2 in West 8 mph 16 mph 85 % 0 in
10:07 43.3 °F 38.8 °F 30.2 in WNW 8 mph 14 mph 84 % 0 in
10:12 43.5 °F 39 °F 30.2 in WNW 6 mph 15 mph 84 % 0 in
10:17 43.5 °F 39 °F 30.2 in WSW 5 mph 16 mph 84 % 0 in
10:22 43.9 °F 39 °F 30.2 in West 7 mph 16 mph 83 % 0 in
10:27 44.1 °F 38.8 °F 30.2 in WNW 8 mph 16 mph 82 % 0 in
10:32 44.2 °F 39 °F 30.2 in NW 12 mph 19 mph 82 % 0 in
10:37 44.1 °F 38.8 °F 30.2 in WNW 13 mph 19 mph 82 % 0 in
10:42 44.2 °F 39 °F 30.2 in NW 6 mph 16 mph 82 % 0 in
10:47 44.4 °F 39.2 °F 30.2 in WNW 10 mph 17 mph 82 % 0 in
10:52 44.4 °F 38.7 °F 30.2 in NNW 6 mph 17 mph 80 % 0 in
10:57 44.4 °F 39 °F 30.2 in WNW 6 mph 16 mph 81 % 0 in
11:02 44.8 °F 39.4 °F 30.2 in WNW 8 mph 16 mph 81 % 0 in
11:07 44.8 °F 38.7 °F 30.2 in WSW 3 mph 17 mph 79 % 0 in
11:12 45 °F 38.5 °F 30.2 in WNW 5 mph 17 mph 78 % 0 in
11:17 45.1 °F 38.3 °F 30.2 in WNW 8 mph 17 mph 77 % 0 in
11:22 45.1 °F 37.8 °F 30.2 in NW 6 mph 16 mph 75 % 0 in
11:27 45.3 °F 37.6 °F 30.2 in WNW 8 mph 16 mph 74 % 0 in
11:32 45.9 °F 38.3 °F 30.2 in WNW 4 mph 16 mph 75 % 0 in
11:37 45.7 °F 38.3 °F 30.2 in WNW 7 mph 16 mph 75 % 0 in
11:42 45.9 °F 37.4 °F 30.2 in WNW 13 mph 14 mph 72 % 0 in
11:47 45.9 °F 37.8 °F 30.2 in West 10 mph 18 mph 73 % 0 in
11:52 45.9 °F 36.3 °F 30.2 in West 8 mph 18 mph 69 % 0 in
11:57 46 °F 36.9 °F 30.2 in WNW 6 mph 18 mph 70 % 0 in
12:02 46 °F 37.6 °F 30.2 in WNW 9 mph 18 mph 72 % 0 in
12:07 46.2 °F 37.8 °F 30.2 in West 6 mph 14 mph 72 % 0 in
12:12 46.6 °F 37.4 °F 30.2 in WNW 6 mph 13 mph 70 % 0 in
12:17 46.8 °F 38.5 °F 30.2 in West 6 mph 17 mph 73 % 0 in
12:22 46.8 °F 38.5 °F 30.2 in WNW 9 mph 17 mph 73 % 0 in
12:27 46.8 °F 37.2 °F 30.2 in NW 5 mph 14 mph 69 % 0 in
12:32 46.8 °F 37.2 °F 30.2 in WNW 1 mph 14 mph 69 % 0 in
12:37 46.8 °F 36.7 °F 30.2 in WSW 3 mph 13 mph 68 % 0 in
12:42 47.1 °F 38.1 °F 30.2 in West 8 mph 11 mph 71 % 0 in
12:47 47.1 °F 36.7 °F 30.2 in West 6 mph 12 mph 67 % 0 in
12:52 47.1 °F 37 °F 30.2 in WNW 6 mph 12 mph 68 % 0 in
12:57 47.3 °F 36.5 °F 30.1 in WSW 6 mph 12 mph 66 % 0 in
13:02 47.5 °F 36.3 °F 30.1 in NW 8 mph 16 mph 65 % 0 in
13:07 47.1 °F 36.7 °F 30.1 in WNW 9 mph 16 mph 67 % 0 in
13:12 47.3 °F 36.1 °F 30.1 in WNW 7 mph 16 mph 65 % 0 in
13:17 47.1 °F 36.3 °F 30.2 in NW 4 mph 15 mph 66 % 0 in
13:22 47.3 °F 35.4 °F 30.2 in West 11 mph 12 mph 63 % 0 in
13:27 47.5 °F 36 °F 30.2 in West 5 mph 13 mph 64 % 0 in
13:32 47.3 °F 36.1 °F 30.2 in West 2 mph 13 mph 65 % 0 in
13:37 47.5 °F 35.6 °F 30.2 in West 9 mph 13 mph 63 % 0 in
13:42 47.3 °F 35.8 °F 30.2 in WNW 4 mph 13 mph 64 % 0 in
13:47 47.7 °F 35.6 °F 30.2 in WNW 4 mph 11 mph 63 % 0 in
13:52 47.7 °F 35.6 °F 30.2 in West 5 mph 11 mph 63 % 0 in
13:57 47.8 °F 35.8 °F 30.2 in WNW 2 mph 10 mph 63 % 0 in
14:02 48 °F 36 °F 30.2 in WNW 3 mph 11 mph 63 % 0 in
14:07 48.6 °F 37.4 °F 30.2 in WNW 11 mph 12 mph 65 % 0 in
14:12 48.4 °F 37.2 °F 30.2 in West 6 mph 13 mph 65 % 0 in
14:17 48 °F 35.6 °F 30.2 in WNW 4 mph 13 mph 62 % 0 in
14:22 47.8 °F 35.4 °F 30.2 in WSW 7 mph 13 mph 62 % 0 in
14:27 47.8 °F 35.4 °F 30.1 in WNW 5 mph 14 mph 62 % 0 in
14:32 48 °F 35.2 °F 30.1 in WNW 4 mph 14 mph 61 % 0 in
14:37 48 °F 35.6 °F 30.1 in WSW 7 mph 13 mph 62 % 0 in
14:42 48.2 °F 35.4 °F 30.2 in West 9 mph 13 mph 61 % 0 in
14:47 48 °F 36 °F 30.1 in NW 6 mph 14 mph 63 % 0 in
14:52 48 °F 35.6 °F 30.1 in NW 4 mph 14 mph 62 % 0 in
14:57 48 °F 35.6 °F 30.1 in WNW 9 mph 14 mph 62 % 0 in
15:02 48 °F 36.9 °F 30.1 in WNW 3 mph 14 mph 65 % 0 in
15:07 48 °F 36.5 °F 30.1 in NW 4 mph 14 mph 64 % 0 in
15:12 48 °F 35.6 °F 30.1 in NW 5 mph 12 mph 62 % 0 in
15:17 48 °F 35.6 °F 30.1 in West 5 mph 14 mph 62 % 0 in
15:22 48 °F 35.6 °F 30.1 in West 8 mph 14 mph 62 % 0 in
15:27 48 °F 35.6 °F 30.1 in WNW 4 mph 13 mph 62 % 0 in
15:37 48.2 °F 36.1 °F 30.2 in WNW 2 mph 11 mph 63 % 0 in
15:42 48.4 °F 36 °F 30.2 in West 5 mph 13 mph 62 % 0 in
15:52 48 °F 35.6 °F 30.2 in WSW 7 mph 11 mph 62 % 0 in
15:57 48.2 °F 36.7 °F 30.2 in WNW 5 mph 11 mph 64 % 0 in
16:02 48.4 °F 37.2 °F 30.2 in West 7 mph 11 mph 65 % 0 in
16:07 48.4 °F 37.9 °F 30.2 in WNW 2 mph 11 mph 67 % 0 in
16:12 48.4 °F 37.9 °F 30.2 in West 3 mph 10 mph 67 % 0 in
16:22 48 °F 37.6 °F 30.2 in WNW 7 mph 10 mph 67 % 0 in
16:27 48 °F 37.6 °F 30.2 in West 6 mph 11 mph 67 % 0 in
16:32 48 °F 38.3 °F 30.2 in WNW 4 mph 11 mph 69 % 0 in
16:37 48 °F 38.3 °F 30.2 in WSW 3 mph 11 mph 69 % 0 in
16:42 48 °F 39 °F 30.2 in West 2 mph 11 mph 71 % 0 in
16:47 48 °F 38.3 °F 30.2 in WNW 4 mph 6 mph 69 % 0 in
16:52 48 °F 37.6 °F 30.2 in West 4 mph 6 mph 67 % 0 in
16:57 48 °F 37.9 °F 30.2 in West 4 mph 9 mph 68 % 0 in
17:02 47.8 °F 37.4 °F 30.2 in WNW 3 mph 10 mph 67 % 0 in
17:07 47.8 °F 37 °F 30.2 in WSW 4 mph 10 mph 66 % 0 in
17:12 47.7 °F 37.6 °F 30.2 in WNW 4 mph 10 mph 68 % 0 in
17:17 47.7 °F 37.6 °F 30.2 in WNW 4 mph 8 mph 68 % 0 in
17:22 47.5 °F 37.4 °F 30.2 in WNW 1 mph 8 mph 68 % 0 in
17:27 47.5 °F 37.4 °F 30.2 in NW 4 mph 8 mph 68 % 0 in
17:32 47.5 °F 37.4 °F 30.2 in WNW 2 mph 7 mph 68 % 0 in
17:37 47.5 °F 37.4 °F 30.2 in WNW 2 mph 6 mph 68 % 0 in
17:42 47.5 °F 37.4 °F 30.2 in WNW 2 mph 6 mph 68 % 0 in
17:47 47.3 °F 37.6 °F 30.2 in WNW 1 mph 5 mph 69 % 0 in
17:52 47.3 °F 37.6 °F 30.2 in WNW 3 mph 5 mph 69 % 0 in
18:02 47.1 °F 37.8 °F 30.2 in West 3 mph 4 mph 70 % 0 in
18:12 46.9 °F 38.1 °F 30.2 in West 1 mph 5 mph 71 % 0 in
18:17 46.9 °F 38.3 °F 30.2 in West 3 mph 4 mph 72 % 0 in
18:22 46.6 °F 39.4 °F 30.2 in WSW 5 mph 8 mph 76 % 0 in
18:27 46.2 °F 39.7 °F 30.2 in WSW 3 mph 8 mph 78 % 0 in
18:32 46 °F 39.9 °F 30.2 in WSW 3 mph 8 mph 79 % 0 in
18:37 45.9 °F 39.7 °F 30.2 in West 6 mph 10 mph 79 % 0 in
18:42 45.7 °F 39.9 °F 30.2 in WSW 3 mph 10 mph 80 % 0 in
18:47 45.7 °F 39.9 °F 30.2 in WSW 5 mph 10 mph 80 % 0 in
18:52 45.5 °F 39.7 °F 30.2 in SW 5 mph 10 mph 80 % 0 in
18:57 45.3 °F 39.6 °F 30.2 in WSW 2 mph 10 mph 80 % 0 in
19:02 45.3 °F 39.6 °F 30.2 in WNW 2 mph 8 mph 80 % 0 in
19:07 45.1 °F 39.4 °F 30.2 in West 3 mph 8 mph 80 % 0 in
19:12 45.1 °F 39.7 °F 30.2 in WSW 5 mph 7 mph 81 % 0 in
19:17 45 °F 39.6 °F 30.2 in West 3 mph 7 mph 81 % 0 in
19:22 44.8 °F 39.4 °F 30.2 in WSW 2 mph 6 mph 81 % 0 in
19:27 44.8 °F 39.4 °F 30.2 in West 1 mph 5 mph 81 % 0 in
19:32 44.8 °F 39.4 °F 30.2 in West 1 mph 5 mph 81 % 0 in
19:37 44.4 °F 39 °F 30.2 in WSW 2 mph 4 mph 81 % 0 in
19:42 44.2 °F 39 °F 30.2 in Calm   3 mph 82 % 0 in
19:47 44.1 °F 38.8 °F 30.2 in West 1 mph 3 mph 82 % 0 in
19:52 43.9 °F 39 °F 30.2 in Calm   3 mph 83 % 0 in
19:57 43.7 °F 38.8 °F 30.2 in WSW 1 mph 2 mph 83 % 0 in
20:02 43.5 °F 38.7 °F 30.2 in Calm   1 mph 83 % 0 in
20:07 43.5 °F 38.7 °F 30.2 in Calm   1 mph 83 % 0 in
20:12 43.3 °F 38.8 °F 30.2 in Calm   1 mph 84 % 0 in
20:17 43 °F 38.5 °F 30.2 in Calm   1 mph 84 % 0 in
20:22 42.6 °F 38.5 °F 30.2 in Calm   1 mph 85 % 0 in
20:32 42.6 °F 38.5 °F 30.2 in Calm   1 mph 85 % 0 in
20:37 42.4 °F 38.3 °F 30.2 in Calm   1 mph 85 % 0 in
20:42 42.1 °F 38.1 °F 30.2 in Calm   1 mph 86 % 0 in
20:47 41.5 °F 38.3 °F 30.2 in Calm   1 mph 88 % 0 in
20:52 41.4 °F 38.1 °F 30.2 in SW 1 mph 1 mph 88 % 0 in
20:57 41.4 °F 38.3 °F 30.2 in Calm   1 mph 89 % 0 in
21:02 41.2 °F 38.1 °F 30.2 in West 1 mph 1 mph 89 % 0 in
21:07 41.2 °F 37.9 °F 30.2 in Calm   2 mph 88 % 0 in
21:12 41.4 °F 38.1 °F 30.2 in Calm   2 mph 88 % 0 in
21:17 41.5 °F 38.3 °F 30.2 in West 1 mph 2 mph 88 % 0 in
21:22 41.4 °F 37.8 °F 30.2 in West 1 mph 2 mph 87 % 0 in
21:27 41.2 °F 37.9 °F 30.2 in West 1 mph 2 mph 88 % 0 in
21:32 40.8 °F 37.6 °F 30.2 in Calm   2 mph 88 % 0 in
21:37 40.5 °F 37.2 °F 30.2 in Calm   1 mph 88 % 0 in
21:42 39.7 °F 36.5 °F 30.2 in SSW 1 mph 1 mph 88 % 0 in
21:47 39.6 °F 36.9 °F 30.2 in SSW 1 mph 2 mph 90 % 0 in
21:52 39.6 °F 37.2 °F 30.2 in South 2 mph 2 mph 91 % 0 in
21:57 39.9 °F 37.6 °F 30.2 in SW 2 mph 3 mph 91 % 0 in
22:02 40.1 °F 37.4 °F 30.2 in SW 2 mph 3 mph 90 % 0 in
22:07 40.3 °F 37.9 °F 30.2 in WSW 2 mph 3 mph 91 % 0 in
22:12 40.5 °F 38.1 °F 30.2 in West 2 mph 4 mph 91 % 0 in
22:17 40.6 °F 37.9 °F 30.2 in WSW 1 mph 4 mph 90 % 0 in
22:22 40.6 °F 37.9 °F 30.2 in Calm   4 mph 90 % 0 in
22:27 40.6 °F 37.9 °F 30.2 in Calm   4 mph 90 % 0 in
22:32 40.6 °F 37.9 °F 30.2 in Calm   3 mph 90 % 0 in
22:37 39.9 °F 36.9 °F 30.2 in Calm   1 mph 89 % 0 in
22:42 39.7 °F 37 °F 30.2 in Calm   1 mph 90 % 0 in
22:47 39.2 °F 36.5 °F 30.2 in Calm     90 % 0 in
22:52 38.8 °F 36.1 °F 30.2 in Calm     90 % 0 in
22:57 38.7 °F 36.3 °F 30.2 in Calm     91 % 0 in
23:02 38.5 °F 36.3 °F 30.2 in Calm     92 % 0 in
23:07 38.5 °F 36.3 °F 30.2 in Calm     92 % 0 in
23:12 38.5 °F 36.3 °F 30.2 in Calm     92 % 0 in
23:17 38.5 °F 36.3 °F 30.2 in Calm   2 mph 92 % 0 in
23:22 38.7 °F 36.9 °F 30.2 in Calm   2 mph 93 % 0 in
23:27 38.7 °F 36.9 °F 30.2 in Calm   1 mph 93 % 0 in
23:32 38.3 °F 36.5 °F 30.2 in Calm   1 mph 93 % 0 in
23:37 38.1 °F 36.3 °F 30.2 in Calm     93 % 0 in
23:42 38.1 °F 36.3 °F 30.2 in SE 1 mph   93 % 0 in
23:47 38.1 °F 36.3 °F 30.2 in Calm   2 mph 93 % 0 in
23:52 37.9 °F 36.3 °F 30.2 in Calm   2 mph 94 % 0 in
23:57 38.1 °F 36.5 °F 30.2 in Calm   2 mph 94 % 0 in
Meteo18
Compliments of Weather Underground - 4 mb

Script developed by  Jim McMurry - jmcmurry@mwt.net Adapted for the template by  Wim van der Kuil - Leuven-Template.eu

You find our weather info also at:

European Weather Network

Weather Underground

Equipment we use:

Weather-station
Davis Vue

Weather-program
Meteohub

Weather-server
Raspberry PI 2 B+

Provider
1 and 1

Davis Vue

Meteohub

Raspberry PI 2 B+

1 and 1